Torna al catalogo

FENGYUN 1C DEB

AttivoSSO
NORAD 37423·DEBRIS·🇨🇳 China

Lanciato May 10, 1999 da Taiyuan Satellite Launch Center

Loading…

Prossimi Passaggi (prossime 24 ore)

TLE

AggiornatoSource: Space-Track

Epoca: Sep 14, 2026, 08:44 UTC

1 37423U 99025EGR 26257.36393442  .00000673  00000-0  41462-3 0  9996
2 37423  98.7619 304.8228 0049529 103.6554 257.0138 14.08148877674888

Traccia FENGYUN 1C DEB in tempo reale con AllMySat

Download on the App Store